Temperature
18 18 18 18 18 18 18 18 18 18 18 18 18 18 18 18 18 18 18 18 18 17 17 17 17 17 17 17 16 16 16 16 16 16 16 16 16 16 16 16 16 16 16
18 18 18 18 18 18 18 18 18 18 18 18 18 18 18 18 18 18 17 17 17 17 17 17 17 17 17 17 16 16 16 16 16 16 16 16 16 16 16 16 16 16 16
18 18 18 18 18 18 18 18 18 18 18 18 18 18 18 18 17 17 17 17 17 17 17 17 17 17 17 17 17 16 16 16 16 16 16 16 16 16 16 16 16 16 16
18 18 18 18 18 18 18 18 18 18 18 18 18 18 18 18 17 17 17 17 17 17 17 17 17 17 17 17 17 17 16 16 16 16 16 16 16 16 16 16 16 16 16
18 18 18 18 18 18 18 18 18 18 18 18 18 18 18 18 17 17 17 17 17 17 17 17 17 17 17 17 17 17 17 16 16 16 16 16 16 16 16 16 16 16 16
18 18 18 18 18 18 18 18 18 18 18 18 18 18 18 18 18 17 17 17 17 17 17 17 17 17 17 17 17 17 17 16 16 16 16 16 16 16 16 16 16 16 16
18 18 18 18 18 18 18 18 18 18 18 18 18 18 18 18 18 18 18 17 17 17 17 17 17 17 17 17 17 17 17 16 16 16 16 16 16 16 16 16 16 16 16
18 18 18 18 18 18 18 18 18 18 18 18 18 18 18 18 18 18 18 18 18 17 17 17 17 16 16 16 16 16 16 16 16 16 16 16 16 16 16 16 16 16 16
18 18 18 18 18 18 18 18 18 18 18 18 18 18 18 18 18 18 18 18 18 18 17 17 17 17 17 16 16 16 16 16 16 16 16 16 16 16 16 16 16 16 16
18 18 18 18 18 18 18 18 18 18 18 18 18 18 18 18 18 18 18 18 18 18 18 18 17 17 17 17 16 16 16 16 16 16 16 16 16 16 16 16 16 16 16
18 18 18 18 18 18 18 18 18 18 18 18 18 18 18 18 18 18 18 18 18 18 18 18 18 17 17 17 17 17 17 17 16 16 16 16 16 16 16 16 16 16 15
18 18 18 18 18 18 18 18 18 18 18 18 18 18 18 18 18 18 18 18 18 18 18 18 18 18 17 17 17 17 17 17 17 16 16 16 16 16 16 16 16 15 15
18 18 18 18 18 18 18 17 18 18 18 18 18 18 18 18 18 18 18 18 19 19 18 18 18 18 17 17 17 17 17 17 17 17 16 16 16 16 16 16 16 15 15
18 18 18 18 18 17 17 17 17 17 17 17 18 18 18 18 18 18 18 18 18 18 18 18 18 18 18 18 17 17 17 17 17 17 16 16 16 16 16 16 16 16 15
17 17 18 17 17 17 17 17 17 17 17 17 17 17 17 18 17 18 18 18 18 18 18 18 18 18 18 18 17 17 17 17 17 16 16 16 16 16 16 16 16 16 15
17 17 17 17 17 17 17 17 17 17 17 17 17 17 17 17 17 17 17 17 17 17 17 18 18 18 17 17 17 17 17 16 16 16 16 16 16 16 16 16 16 16 15
17 17 17 17 17 17 17 17 17 17 17 17 17 17 17 17 17 17 17 17 17 17 17 17 17 17 17 17 17 17 16 16 16 16 16 16 16 16 16 16 16 16 16
17 17 17 17 17 17 17 17 17 17 17 17 17 17 16 16 17 17 17 17 17 17 17 17 17 17 17 17 16 16 16 16 16 16 16 16 16 16 16 16 16 15 15
17 17 17 17 17 16 16 16 16 16 16 16 16 16 16 16 16 16 16 16 16 16 16 16 16 16 16 16 16 16 16 16 16 16 16 16 16 16 15 15 15 15 15
16 16 16 16 16 16 16 16 16 16 16 16 16 16 16 16 16 16 16 16 16 16 16 16 16 15 15 15 15 15 15 15 15 15 15 15 15 15 15 15 15 14 14
16 16 16 16 16 16 16 16 16 16 16 16 15 15 15 15 15 15 15 15 15 15 15 15 15 15 15 15 15 15 15 15 15 15 15 15 15 14 14 14 14 14 14
16 16 16 16 16 15 15 16 15 15 15 15 15 15 15 15 15 15 15 15 15 15 15 14 14 14 14 14 14 14 14 14 14 14 14 14 14 14 14 13 13 13 13
15 15 15 15 15 15 15 15 15 15 15 15 15 15 14 15 15 14 14 14 14 14 14 14 14 13 13 13 13 13 13 13 13 13 13 13 13 13 13 13 13 12 12
15 15 15 14 14 14 15 15 15 14 14 14 14 14 14 14 14 14 14 14 13 13 13 13 13 13 12 12 12 12 12 12 12 12 12 12 12 12 12 12 12 12 12
14 14 14 14 14 14 14 14 14 14 14 13 13 13 13 13 13 13 13 13 13 12 12 12 12 12 12 11 11 12 12 11 11 11 11 11 11 11 11 11 11 11 11
14 13 13 13 13 13 13 13 13 13 13 13 12 12 12 12 12 12 12 12 12 12 12 11 11 11 11 11 11 11 11 11 10 10 10 10 10 10 10 10 10 10 10
Wind_Speed
4 5 4 5 6 8 6 3 3 3 2 3 3 3 3 6 12 14 13 14 13 12 11 10 9 9 9 8 8 8 8 8 8 8 8 8 8 8 8 8 7 7 6
5 5 3 2 3 5 5 3 5 3 1 2 2 3 3 6 10 14 14 13 12 12 11 10 9 9 9 8 8 8 8 9 8 8 8 8 7 7 7 7 7 6 6
8 6 4 3 3 6 6 4 4 3 3 3 3 3 3 4 7 11 14 13 12 12 11 11 10 9 9 9 8 9 9 9 9 9 9 8 8 7 7 7 7 6 6
10 6 4 4 5 5 4 3 2 2 2 3 3 2 3 4 5 8 10 13 14 13 13 12 11 10 10 10 9 9 9 10 10 10 10 9 9 8 8 8 7 7 7
10 6 3 4 6 4 3 4 3 1 2 3 3 3 3 3 4 6 6 10 12 14 14 15 14 13 12 11 10 10 10 11 11 11 11 11 10 10 9 9 9 8 8
10 7 4 5 4 3 3 2 3 2 1 2 3 4 3 4 4 3 5 7 10 13 15 16 15 14 14 13 13 12 12 12 12 12 12 12 11 11 11 11 10 10 10
10 7 4 5 3 3 4 5 3 3 2 1 1 2 2 3 4 4 3 4 6 10 13 16 16 14 14 17 16 15 14 13 13 13 13 13 13 13 13 12 12 12 11
10 9 4 5 5 4 4 4 3 2 3 3 2 1 1 2 3 6 5 5 5 7 8 13 13 13 13 14 16 18 16 15 14 14 14 14 14 14 14 14 13 13 13
9 7 8 5 5 5 5 5 5 4 3 3 2 1 1 2 2 2 5 5 5 4 4 9 13 13 13 13 15 19 19 17 16 15 15 15 15 15 14 14 14 14 14
8 8 7 6 5 4 6 7 6 4 3 3 2 2 2 1 1 1 2 4 6 6 5 5 8 13 14 12 14 17 20 19 17 16 15 15 16 16 16 16 15 15 15
7 8 7 6 6 4 6 6 5 5 3 4 3 3 3 2 3 2 2 2 3 4 5 4 4 8 13 14 14 16 20 20 19 18 16 16 16 16 16 16 16 15 15
7 8 8 6 6 5 5 5 5 6 4 3 3 2 2 2 3 3 3 3 3 4 5 4 4 5 10 12 14 17 21 21 20 19 18 17 16 15 16 16 16 16 16
7 8 8 7 6 5 6 5 6 5 5 4 3 3 3 3 3 2 2 2 2 2 3 4 4 6 9 10 11 15 20 21 20 19 18 17 17 16 16 16 16 16 16
6 7 7 7 6 6 7 6 6 6 6 5 6 5 3 3 3 2 2 1 2 2 2 3 3 4 6 8 10 14 15 20 20 19 18 18 17 17 17 16 17 16 16
6 7 8 8 8 7 6 6 5 6 6 6 5 5 4 4 3 3 2 2 2 2 3 3 1 2 4 5 9 11 11 18 20 19 18 18 17 17 16 16 16 16 16
5 6 8 7 7 7 7 6 6 6 6 5 4 5 4 4 3 3 2 2 2 2 2 2 2 1 0 2 8 8 8 12 18 19 19 18 17 16 16 15 15 15 15
5 5 6 6 6 6 6 6 6 6 6 6 5 5 5 4 3 3 2 2 2 2 3 3 1 0 0 1 2 5 6 7 10 16 18 18 17 16 15 15 14 14 13
4 5 5 5 5 5 5 6 7 6 6 6 5 4 4 4 4 2 2 2 1 1 2 3 2 1 1 2 2 3 4 6 6 11 17 18 17 16 15 14 14 13 12
4 4 5 5 5 4 5 5 5 4 4 4 4 4 4 3 3 2 2 2 1 2 1 1 2 2 2 2 1 2 3 2 5 6 11 15 16 15 15 14 14 13 12
4 4 4 4 4 4 4 4 4 3 3 2 2 2 2 3 3 2 2 1 1 1 1 1 2 2 2 2 1 2 3 2 3 4 3 6 11 14 14 14 13 12 11
3 3 3 3 3 3 3 3 3 4 3 3 2 2 2 2 2 2 1 1 1 1 1 1 1 1 2 2 2 2 3 3 3 2 2 1 2 4 6 8 9 10 11
5 5 4 5 4 3 4 5 4 4 5 4 4 2 2 3 4 4 4 3 2 1 0 1 1 1 2 3 3 3 3 3 3 3 3 3 1 0 1 3 5 6 7
6 7 6 6 6 7 8 9 8 6 6 5 4 3 2 3 3 2 3 3 3 3 2 1 1 1 2 3 3 3 3 3 3 3 3 3 2 2 3 1 1 4 5
6 6 6 6 7 8 9 9 9 7 6 6 6 5 4 5 5 3 2 3 3 3 3 2 2 2 3 3 3 3 4 4 3 3 3 2 3 3 4 3 1 1 2
6 6 6 6 7 7 8 8 7 5 6 8 8 8 7 7 8 7 4 4 5 4 6 8 7 6 5 6 6 4 4 4 3 3 4 2 3 4 3 2 2 2 3
6 7 7 7 7 7 9 9 6 5 6 6 7 9 13 11 11 9 6 5 6 4 3 3 3 3 3 5 6 4 3 3 3 2 4 4 4 4 3 3 4 5 5
Wind_Direction
156 142 145 162 180 162 172 193 145 120 131 146 154 104 83 97 117 126 140 149 149 151 154 156 157 157 159 158 158 156 154 154 152 151 150 150 149 147 144 142 141 140 140
143 135 140 170 189 154 155 153 132 137 147 103 83 93 95 98 112 126 143 152 155 158 163 166 166 167 169 170 172 173 170 168 167 168 167 166 164 163 163 161 160 158 157
145 152 159 184 179 151 143 147 140 157 167 147 126 119 112 116 126 135 148 157 164 171 174 177 177 176 180 181 184 186 185 183 182 183 183 182 182 181 179 180 180 179 177
158 167 170 181 162 155 153 148 168 182 152 130 136 139 124 125 133 153 160 166 170 176 183 186 186 189 191 192 194 194 195 194 194 196 196 196 195 196 197 197 198 197 198
169 184 178 155 173 165 159 181 147 159 147 150 158 156 159 161 163 179 171 176 175 171 178 189 193 196 199 201 202 202 203 203 202 204 206 206 206 207 208 209 211 212 212
176 186 178 165 185 164 159 136 123 130 135 194 193 157 187 178 183 179 185 185 181 180 182 182 189 200 206 207 208 209 210 210 209 210 212 214 214 214 215 216 218 219 220
180 194 191 162 187 167 162 156 150 156 194 210 177 175 212 201 189 178 193 188 190 190 183 175 185 192 199 210 211 213 215 215 214 214 216 218 220 220 220 221 222 224 227
183 192 200 177 180 167 165 165 154 170 208 197 198 175 257 267 230 203 188 197 197 189 184 181 187 189 192 193 208 213 215 217 216 217 218 220 221 223 224 225 226 229 231
189 197 177 189 174 175 173 181 181 188 206 212 205 181 194 220 234 227 207 197 186 187 196 187 188 195 200 193 197 208 213 215 216 218 219 220 221 223 225 226 229 231 233
187 194 183 187 185 189 169 184 189 193 196 217 223 217 226 197 194 226 249 205 192 195 208 210 199 192 200 196 191 197 206 212 214 216 219 221 223 224 227 229 231 233 235
191 195 190 188 189 200 182 188 166 188 194 209 224 220 220 218 230 207 228 216 212 203 202 206 197 191 197 200 192 195 200 206 211 215 219 222 224 226 229 231 234 237 238
196 197 192 190 192 199 187 185 181 194 211 226 239 254 225 217 230 224 224 221 217 213 198 193 195 198 200 198 200 199 197 204 209 214 218 222 225 228 230 232 236 239 241
197 198 195 187 194 195 189 184 188 202 205 218 227 250 254 249 246 234 231 240 233 230 200 198 197 195 205 200 199 192 194 201 207 213 218 224 228 231 232 234 236 239 241
202 190 187 189 194 198 200 191 195 200 201 209 222 230 249 257 269 255 242 245 261 253 228 232 200 183 195 180 184 186 194 201 206 212 218 223 229 232 234 236 238 240 242
202 186 189 197 197 199 204 196 209 209 193 205 218 222 234 251 264 271 259 227 230 258 260 248 234 195 184 159 169 194 201 202 207 213 218 223 228 232 235 237 239 241 242
212 194 191 191 194 198 199 197 210 207 200 207 215 218 221 249 256 257 257 256 240 238 255 257 237 214 85 173 175 199 215 205 210 215 217 221 226 229 233 236 239 242 244
206 201 193 191 192 197 198 202 213 203 201 209 220 215 215 233 261 279 271 256 247 241 246 275 292 327 63 12 158 227 235 212 212 216 218 221 224 227 230 234 237 241 244
194 193 189 187 193 198 199 206 216 207 204 210 216 218 213 219 218 252 283 289 285 262 238 266 302 314 272 244 215 236 257 247 237 220 218 221 223 225 227 229 232 236 240
186 190 186 189 196 196 197 203 207 204 205 204 201 203 208 203 202 216 238 267 298 301 297 266 285 305 302 300 271 259 270 288 280 247 217 219 220 221 223 225 228 230 234
177 181 185 187 184 169 171 178 181 179 178 183 186 193 198 185 191 207 220 237 275 301 323 310 293 304 309 308 342 298 294 294 287 290 256 212 217 223 227 228 227 229 233
133 131 136 139 143 151 157 145 147 154 140 125 105 90 89 101 113 134 175 183 218 245 292 311 306 330 342 353 349 313 307 309 299 336 342 307 215 213 219 225 228 230 233
102 105 104 105 102 109 100 105 109 106 106 102 95 94 102 83 100 108 106 86 84 112 317 328 351 11 8 1 353 344 347 341 325 349 351 319 345 325 210 197 208 213 227
96 97 98 97 88 72 79 88 90 88 88 87 81 70 71 67 72 110 115 99 76 63 80 112 54 353 0 355 344 340 339 324 300 312 335 316 338 334 344 33 187 206 216
93 94 95 94 87 73 74 84 86 86 82 76 67 61 64 48 39 48 83 85 74 44 55 91 90 41 29 7 348 334 323 321 316 344 357 322 338 335 337 355 313 205 225
93 90 89 86 86 73 67 77 86 94 83 74 67 56 58 57 44 48 68 85 85 74 78 88 93 88 68 46 31 17 5 356 334 349 7 351 344 334 319 322 346 313 297
105 100 88 81 84 78 66 69 78 96 95 87 77 66 57 55 47 50 59 71 75 62 59 73 82 70 62 57 52 46 17 358 341 357 18 7 356 354 338 346 0 342 327
Height
1559 1560 1562 1563 1565 1567 1568 1569 1571 1572 1573 1575 1576 1577 1578 1579 1579 1579 1580 1581 1582 1583 1584 1585 1586 1587 1588 1590 1591 1592 1593 1594 1595 1596 1597 1598 1599 1600 1601 1602 1602 1603 1604
1559 1560 1562 1563 1565 1567 1568 1570 1571 1572 1574 1575 1576 1577 1578 1579 1579 1580 1580 1581 1582 1583 1584 1585 1586 1587 1588 1590 1591 1592 1593 1594 1595 1596 1597 1598 1599 1600 1601 1602 1603 1603 1604
1558 1560 1561 1563 1565 1567 1568 1570 1571 1572 1574 1575 1576 1577 1578 1579 1580 1580 1580 1581 1582 1583 1584 1585 1586 1587 1588 1589 1590 1591 1592 1594 1595 1596 1597 1598 1599 1600 1601 1602 1603 1603 1604
1556 1558 1561 1563 1564 1566 1568 1569 1571 1572 1574 1575 1576 1577 1578 1579 1580 1580 1581 1581 1582 1583 1584 1585 1586 1587 1588 1589 1590 1591 1592 1593 1594 1595 1596 1597 1598 1599 1600 1601 1602 1603 1604
1555 1557 1560 1562 1563 1565 1567 1569 1570 1572 1573 1574 1575 1576 1577 1578 1579 1580 1581 1582 1582 1583 1583 1584 1585 1586 1587 1588 1589 1590 1591 1592 1593 1594 1595 1596 1597 1598 1599 1600 1601 1602 1602
1553 1555 1558 1560 1562 1564 1566 1568 1569 1571 1572 1574 1575 1576 1577 1578 1578 1579 1580 1581 1582 1582 1582 1583 1584 1585 1586 1587 1588 1589 1589 1590 1591 1592 1593 1594 1595 1596 1597 1598 1599 1600 1601
1551 1554 1557 1558 1560 1563 1564 1566 1568 1569 1571 1573 1574 1575 1576 1577 1577 1578 1579 1580 1581 1582 1582 1583 1583 1584 1584 1585 1586 1587 1588 1588 1589 1590 1591 1592 1594 1595 1596 1597 1598 1598 1599
1549 1552 1554 1556 1559 1561 1563 1565 1566 1568 1570 1572 1573 1574 1575 1577 1576 1577 1578 1579 1580 1581 1581 1582 1582 1583 1583 1584 1585 1585 1586 1586 1587 1588 1589 1590 1591 1592 1593 1594 1595 1596 1597
1547 1550 1552 1555 1557 1559 1561 1563 1564 1566 1568 1570 1572 1573 1574 1574 1575 1576 1576 1577 1578 1579 1580 1581 1581 1581 1582 1582 1583 1584 1584 1584 1585 1586 1587 1588 1589 1590 1591 1592 1593 1594 1594
1544 1547 1550 1552 1555 1557 1559 1561 1562 1565 1567 1568 1570 1571 1573 1573 1574 1574 1575 1575 1576 1577 1578 1579 1579 1579 1580 1580 1580 1581 1582 1583 1583 1584 1585 1586 1586 1587 1588 1589 1590 1591 1591
1541 1544 1547 1550 1552 1554 1557 1559 1560 1562 1564 1566 1568 1570 1571 1572 1572 1573 1573 1574 1574 1575 1576 1577 1577 1578 1578 1578 1578 1579 1580 1580 1581 1581 1582 1583 1584 1585 1586 1586 1587 1588 1588
1539 1541 1544 1547 1549 1552 1554 1556 1558 1560 1562 1564 1566 1567 1569 1570 1570 1571 1571 1571 1572 1573 1573 1574 1575 1575 1576 1576 1576 1577 1577 1578 1579 1579 1580 1580 1581 1582 1583 1583 1584 1585 1585
1536 1538 1541 1543 1546 1548 1551 1553 1555 1557 1559 1561 1563 1564 1566 1567 1568 1569 1569 1569 1570 1571 1571 1572 1572 1573 1573 1573 1574 1575 1575 1575 1576 1576 1577 1578 1578 1579 1580 1580 1581 1581 1582
1532 1535 1538 1540 1543 1545 1548 1550 1552 1554 1556 1558 1560 1561 1563 1564 1566 1567 1567 1568 1568 1569 1569 1569 1570 1570 1571 1571 1571 1572 1572 1573 1573 1574 1574 1575 1575 1576 1576 1577 1577 1578 1578
1529 1532 1534 1537 1539 1542 1544 1547 1549 1551 1553 1555 1556 1558 1560 1561 1562 1564 1564 1565 1566 1566 1566 1567 1567 1567 1568 1568 1568 1569 1569 1570 1570 1571 1571 1571 1572 1572 1573 1573 1574 1574 1574
1525 1528 1530 1533 1536 1538 1541 1543 1545 1548 1550 1551 1553 1555 1556 1558 1559 1561 1561 1562 1563 1563 1563 1564 1565 1565 1565 1566 1566 1566 1566 1566 1567 1567 1568 1568 1568 1569 1569 1569 1570 1570 1570
1521 1524 1527 1529 1532 1534 1537 1539 1541 1544 1546 1548 1550 1551 1553 1554 1555 1557 1558 1559 1559 1560 1560 1561 1562 1562 1562 1563 1563 1563 1563 1563 1563 1563 1564 1564 1564 1565 1565 1565 1565 1566 1566
1518 1520 1523 1526 1528 1530 1532 1535 1537 1540 1542 1544 1546 1548 1549 1551 1552 1553 1554 1555 1556 1557 1558 1558 1558 1559 1559 1559 1559 1559 1560 1560 1560 1560 1560 1560 1560 1560 1560 1560 1560 1561 1561
1514 1517 1519 1522 1524 1526 1529 1531 1534 1536 1538 1540 1542 1544 1545 1547 1548 1549 1550 1551 1552 1554 1554 1555 1555 1555 1555 1556 1555 1556 1556 1556 1556 1556 1556 1556 1556 1556 1556 1556 1556 1555 1555
1511 1514 1516 1519 1521 1524 1526 1529 1531 1533 1535 1537 1538 1540 1542 1543 1544 1545 1547 1548 1549 1550 1551 1551 1551 1552 1552 1552 1552 1553 1553 1553 1553 1553 1552 1552 1552 1552 1552 1551 1551 1551 1551
1510 1512 1515 1517 1520 1522 1524 1526 1528 1530 1532 1533 1535 1536 1538 1539 1541 1542 1543 1544 1545 1546 1547 1547 1548 1548 1549 1549 1549 1549 1549 1549 1549 1549 1548 1548 1548 1547 1547 1546 1546 1546 1546
1510 1512 1514 1516 1518 1520 1523 1525 1527 1528 1529 1531 1532 1534 1535 1537 1538 1539 1540 1541 1542 1543 1543 1544 1545 1545 1545 1545 1546 1546 1546 1545 1545 1546 1545 1545 1545 1544 1543 1542 1542 1541 1541
1510 1512 1515 1517 1518 1520 1522 1524 1526 1527 1528 1529 1531 1532 1533 1534 1535 1536 1536 1537 1539 1540 1541 1541 1542 1542 1542 1543 1543 1543 1543 1543 1542 1542 1542 1541 1541 1540 1540 1539 1538 1537 1536
1512 1514 1515 1517 1519 1521 1522 1524 1525 1527 1528 1529 1530 1531 1532 1532 1533 1533 1533 1534 1536 1537 1537 1538 1539 1539 1540 1540 1540 1540 1540 1539 1539 1539 1538 1538 1537 1536 1536 1535 1534 1533 1532
1513 1515 1516 1518 1519 1521 1523 1524 1526 1527 1528 1529 1530 1530 1531 1531 1532 1532 1532 1533 1533 1534 1535 1536 1536 1537 1537 1537 1537 1537 1536 1536 1536 1536 1535 1535 1533 1532 1532 1531 1530 1530 1528
1515 1516 1517 1519 1520 1522 1523 1525 1526 1527 1527 1529 1529 1530 1530 1531 1531 1531 1532 1532 1532 1533 1533 1534 1534 1535 1535 1535 1535 1535 1534 1534 1533 1533 1532 1532 1531 1530 1529 1528 1528 1526 1525